• In Russia
  • List of Countries
  • For 7 days
  • Water Temperature
  • Satellite Maps
  • Weather Map
  • Weather Widgets
  • user-avatar
    Login

    Hourly Weather Maseru

    Today, 24 May, Thursday

    Time Temperature Precipitation Wind Pressure Humidity
    00:00 +9°C° 0 mm 0 mps 637 mmHg 62%
    01:00 +8°C° 0 mm 0 mps 637 mmHg 64%
    02:00 +8°C° 0 mm 0 mps 637 mmHg 67%
    03:00 +8°C° 0 mm 0 mps 636 mmHg 68%
    04:00 +7°C° 0 mm 0 mps 636 mmHg 69%
    05:00 +7°C° 0 mm 0 mps 636 mmHg 70%
    06:00 +8°C° 0 mm 0 mps 637 mmHg 65%
    07:00 +10°C° 0 mm 0 mps 637 mmHg 59%
    08:00 +11°C° 0 mm 0 mps 638 mmHg 54%
    09:00 +13°C° 0 mm 0 mps 638 mmHg 45%
    10:00 +18°C° 0 mm 1 mps 639 mmHg 37%
    11:00 +20°C° 0 mm 1 mps 639 mmHg 29%
    12:00 +20°C° 0 mm 2 mps 639 mmHg 28%
    13:00 +21°C° 0 mm 2 mps 639 mmHg 26%
    14:00 +22°C° 0 mm 3 mps 638 mmHg 25%
    15:00 +20°C° 0 mm 3 mps 638 mmHg 29%
    16:00 +19°C° 0 mm 2 mps 637 mmHg 32%
    17:00 +17°C° 0 mm 2 mps 637 mmHg 36%
    18:00 +16°C° 0 mm 1 mps 636 mmHg 40%
    19:00 +14°C° 0 mm 1 mps 636 mmHg 43%
    20:00 +12°C° 0 mm 1 mps 635 mmHg 47%
    21:00 +10°C° 0 mm 0 mps 635 mmHg 49%
    22:00 +10°C° 0 mm 0 mps 635 mmHg 51%
    23:00 +9°C° 0 mm 0 mps 635 mmHg 53%

    Tomorrow, 25 May, Friday

    Time Temperature Precipitation Wind Pressure Humidity
    00:00 +9°C° 0 mm 0 mps 635 mmHg 55%
    01:00 +9°C° 0 mm 0 mps 635 mmHg 57%
    02:00 +8°C° 0 mm 0 mps 634 mmHg 59%
    03:00 +9°C° 0 mm 1 mps 634 mmHg 61%
    04:00 +9°C° 0 mm 1 mps 634 mmHg 63%
    05:00 +8°C° 0 mm 1 mps 634 mmHg 65%
    06:00 +9°C° 0 mm 1 mps 635 mmHg 60%
    07:00 +11°C° 0 mm 1 mps 635 mmHg 55%
    08:00 +12°C° 0 mm 1 mps 636 mmHg 50%
    09:00 +14°C° 0 mm 1 mps 637 mmHg 42%
    10:00 +18°C° 0 mm 1 mps 638 mmHg 34%
    11:00 +19°C° 0 mm 2 mps 638 mmHg 27%
    12:00 +20°C° 0 mm 2 mps 638 mmHg 25%
    13:00 +20°C° 0 mm 3 mps 638 mmHg 24%
    14:00 +21°C° 0 mm 4 mps 637 mmHg 22%
    15:00 +20°C° 0 mm 3 mps 637 mmHg 25%
    16:00 +18°C° 0 mm 3 mps 636 mmHg 28%
    17:00 +17°C° 0 mm 2 mps 636 mmHg 31%
    18:00 +15°C° 0 mm 2 mps 636 mmHg 34%
    19:00 +13°C° 0 mm 1 mps 635 mmHg 38%
    20:00 +11°C° 0 mm 1 mps 635 mmHg 41%
    21:00 +11°C° 0 mm 1 mps 635 mmHg 42%
    22:00 +10°C° 0 mm 1 mps 635 mmHg 44%
    23:00 +9°C° 0 mm 0 mps 635 mmHg 46%

    Day after tomorrow, 26 May, Saturday

    Time Temperature Precipitation Wind Pressure Humidity
    00:00 +9°C° 0 mm 1 mps 635 mmHg 47%
    01:00 +9°C° 0 mm 1 mps 635 mmHg 48%
    02:00 +9°C° 0 mm 1 mps 634 mmHg 49%
    03:00 +8°C° 0 mm 1 mps 634 mmHg 50%
    04:00 +8°C° 0 mm 1 mps 634 mmHg 51%
    05:00 +8°C° 0 mm 1 mps 634 mmHg 52%
    06:00 +9°C° 0 mm 1 mps 635 mmHg 50%
    07:00 +10°C° 0 mm 1 mps 636 mmHg 48%
    08:00 +11°C° 0 mm 1 mps 637 mmHg 45%
    09:00 +13°C° 0 mm 1 mps 637 mmHg 39%
    10:00 +16°C° 0 mm 2 mps 638 mmHg 33%
    11:00 +18°C° 0 mm 2 mps 639 mmHg 27%
    12:00 +19°C° 0 mm 3 mps 639 mmHg 25%
    13:00 +19°C° 0 mm 4 mps 638 mmHg 23%
    14:00 +20°C° 0 mm 5 mps 638 mmHg 22%
    15:00 +18°C° 0 mm 4 mps 637 mmHg 25%
    16:00 +17°C° 0 mm 3 mps 637 mmHg 28%
    17:00 +16°C° 0 mm 2 mps 637 mmHg 31%
    18:00 +14°C° 0 mm 2 mps 636 mmHg 36%
    19:00 +12°C° 0 mm 1 mps 636 mmHg 40%
    20:00 +9°C° 0 mm 0 mps 636 mmHg 45%
    21:00 +9°C° 0 mm 0 mps 636 mmHg 47%
    22:00 +8°C° 0 mm 0 mps 636 mmHg 49%
    23:00 +8°C° 0 mm 0 mps 636 mmHg 51%

    27 May, Sunday

    Time Temperature Precipitation Wind Pressure Humidity
    00:00 +8°C° 0 mm 1 mps 636 mmHg 51%
    01:00 +8°C° 0 mm 1 mps 635 mmHg 52%
    02:00 +8°C° 0 mm 1 mps 635 mmHg 53%
    03:00 +7°C° 0 mm 1 mps 635 mmHg 52%
    04:00 +7°C° 0 mm 1 mps 635 mmHg 52%
    05:00 +7°C° 0 mm 1 mps 635 mmHg 52%
    06:00 +8°C° 0 mm 1 mps 636 mmHg 49%
    07:00 +9°C° 0 mm 1 mps 637 mmHg 46%
    08:00 +11°C° 0 mm 1 mps 637 mmHg 44%
    09:00 +13°C° 0 mm 2 mps 638 mmHg 38%
    10:00 +15°C° 0 mm 2 mps 639 mmHg 33%
    11:00 +18°C° 0 mm 3 mps 639 mmHg 28%
    12:00 +19°C° 0 mm 4 mps 639 mmHg 26%
    13:00 +19°C° 0 mm 5 mps 639 mmHg 25%
    14:00 +20°C° 0 mm 6 mps 638 mmHg 23%
    15:00 +19°C° 0 mm 5 mps 638 mmHg 26%
    16:00 +17°C° 0 mm 4 mps 638 mmHg 30%
    17:00 +16°C° 0 mm 3 mps 637 mmHg 33%
    18:00 +14°C° 0 mm 2 mps 637 mmHg 36%
    19:00 +12°C° 0 mm 1 mps 637 mmHg 40%
    20:00 +11°C° 0 mm 1 mps 636 mmHg 43%
    21:00 +10°C° 0 mm 1 mps 636 mmHg 44%
    22:00 +10°C° 0 mm 1 mps 636 mmHg 44%
    23:00 +10°C° 0 mm 1 mps 636 mmHg 44%

    28 May, Monday

    Time Temperature Precipitation Wind Pressure Humidity
    00:00 +10°C° 0 mm 1 mps 636 mmHg 45%
    01:00 +9°C° 0 mm 1 mps 636 mmHg 46%
    02:00 +9°C° 0 mm 1 mps 636 mmHg 47%
    03:00 +8°C° 0 mm 2 mps 635 mmHg 48%
    04:00 +8°C° 0 mm 2 mps 635 mmHg 49%
    05:00 +7°C° 0 mm 2 mps 635 mmHg 50%
    06:00 +8°C° 0 mm 2 mps 636 mmHg 48%
    07:00 +9°C° 0 mm 2 mps 636 mmHg 46%
    08:00 +10°C° 0 mm 2 mps 637 mmHg 45%
    09:00 +13°C° 0 mm 3 mps 638 mmHg 38%
    10:00 +17°C° 0 mm 4 mps 638 mmHg 32%
    11:00 +19°C° 0 mm 5 mps 638 mmHg 26%
    12:00 +20°C° 0 mm 6 mps 638 mmHg 26%
    13:00 +21°C° 0 mm 7 mps 638 mmHg 25%
    14:00 +22°C° 0 mm 8 mps 637 mmHg 24%
    15:00 +21°C° 0 mm 7 mps 637 mmHg 26%
    16:00 +20°C° 0 mm 6 mps 636 mmHg 29%
    17:00 +19°C° 0 mm 4 mps 636 mmHg 31%
    18:00 +18°C° 0 mm 4 mps 636 mmHg 32%
    19:00 +17°C° 0 mm 4 mps 636 mmHg 33%
    20:00 +16°C° 0 mm 3 mps 636 mmHg 35%
    21:00 +16°C° 0 mm 3 mps 636 mmHg 35%
    22:00 +16°C° 0 mm 3 mps 636 mmHg 35%
    23:00 +16°C° 0 mm 3 mps 636 mmHg 35%

    29 May, Tuesday

    Time Temperature Precipitation Wind Pressure Humidity
    00:00 +15°C° 0.1 mm 2 mps 636 mmHg 39%
    01:00 +14°C° 0.1 mm 1 mps 635 mmHg 43%
    02:00 +13°C° 0.1 mm 1 mps 635 mmHg 46%
    03:00 +12°C° 0.9 mm 1 mps 635 mmHg 54%
    04:00 +11°C° 0.9 mm 1 mps 635 mmHg 61%
    05:00 +9°C° 0.9 mm 2 mps 634 mmHg 68%
    06:00 +9°C° 0.5 mm 2 mps 635 mmHg 71%
    07:00 +9°C° 0.5 mm 2 mps 635 mmHg 75%
    08:00 +9°C° 0.5 mm 2 mps 636 mmHg 78%
    09:00 +10°C° 0 mm 2 mps 636 mmHg 67%
    10:00 +13°C° 0 mm 2 mps 637 mmHg 56%
    11:00 +14°C° 0 mm 2 mps 637 mmHg 45%
    12:00 +15°C° 0 mm 2 mps 637 mmHg 39%
    13:00 +16°C° 0 mm 3 mps 636 mmHg 34%
    14:00 +17°C° 0 mm 3 mps 636 mmHg 28%
    15:00 +16°C° 0 mm 3 mps 636 mmHg 30%
    16:00 +15°C° 0 mm 2 mps 636 mmHg 32%
    17:00 +14°C° 0 mm 2 mps 636 mmHg 33%
    18:00 +12°C° 0 mm 2 mps 636 mmHg 36%
    19:00 +11°C° 0 mm 1 mps 635 mmHg 40%
    20:00 +9°C° 0 mm 1 mps 635 mmHg 43%
    21:00 +8°C° 0 mm 1 mps 635 mmHg 45%
    22:00 +8°C° 0 mm 1 mps 635 mmHg 48%
    23:00 +7°C° 0 mm 1 mps 635 mmHg 51%
    Show more